Voltar ao catálogo

USA 313

AtivoMilitarVLEO
NORAD 47295·PAYLOAD·🇺🇸 United States

Lançado Dec 19, 2020 de Cape Canaveral Space Force Station

Loading…

Próximas Passagens (próximas 24 horas)

TLE

ObsoletoSource: Mike McCants

Época: May 28, 2023, 20:26 UTC

1 47295U 20101B   23148.85178512 0.00070000  00000-0  16435-2 0    07
2 47295  52.9951  94.9729 0008000  85.7004 274.2995 15.41419832    08

Acompanhe USA 313 em tempo real com AllMySat

Download on the App Store